[[{"header":{"parameterUnit":"m.s-1","parameterCategory":1,"la1":30.2991,"la2":30.254,"lo1":-89.0895,"lo2":-89.0444,"dy":0.0017,"dx":0.0017,"nx":28,"ny":28,"refTime":"2024-03-06T03:00:00:Z","depth":0,"parameterNumber":2,"parameterNumberName":"U-component_of_WINDS"},"data":[0,0,0,0,0,0,0,0,0,0,0,0,0,0,0,0,0,0,0,0,0,0,0,0,0,0,0,0,0,0,0,0,0,0,0,0,0,0,0,0,0,0,0,0,0,0,0,0,0,0,0,0,0,0,0,0,0,0,1.3887,1.3888,0,1.395,1.395,1.3951,1.3933,1.3932,1.393,1.3929,1.3995,1.3998,1.4001,0,0,0,0,0,0,0,0,0,0,0,0,0,1.3755,1.3758,1.3887,1.3888,1.3889,1.395,1.395,1.3951,1.3933,1.3932,1.393,1.3928,1.3994,1.3998,1.4002,0,0,0,0,0,0,0,0,0,0,0,0,0,1.3815,1.3759,1.3887,1.3887,1.3887,1.3949,1.3951,1.3952,1.3933,1.3932,1.393,1.3928,1.3993,1.3998,1.4002,1.4069,0,0,1.4016,1.4018,0,0,0,0,0,0,0,0,1.3811,1.382,1.3886,1.3887,1.3888,1.3931,1.3928,1.3991,1.3934,1.3916,1.3929,1.3927,1.3976,1.3982,1.3998,1.4072,1.4075,1.4016,1.4019,1.4021,1.4022,0,0,0,0,0,0,0,1.3807,1.3817,1.3912,1.3887,1.3888,1.3885,1.3891,1.394,1.3956,1.3917,1.3916,1.3924,1.3976,1.3993,1.3999,1.4076,1.4016,1.402,1.4023,1.4024,1.421,1.4212,0,0,0,0,0,0,1.3802,1.3814,1.391,1.3914,1.3844,1.3889,1.3896,1.3919,1.3956,1.3959,1.3925,1.3923,1.3987,1.3994,1.4001,1.4084,1.4021,1.4025,1.4027,1.4208,1.4211,1.4213,0,0,0,0,0,0,1.3799,1.3811,1.3907,1.3863,1.3875,1.3893,1.392,1.3922,1.3939,1.3962,1.3965,1.394,1.3986,1.3995,1.4053,1.4086,1.4027,1.4031,1.4205,1.4209,1.4212,1.4247,0,0,0,0,0,0,1.3796,1.381,1.3835,1.3864,1.3878,1.3956,1.3922,1.3924,1.3947,1.3944,1.3976,1.398,1.3985,1.4046,1.4057,1.4091,1.4034,1.4202,1.4207,1.4211,1.4243,1.4251,1.4258,0,0,0,0,0,1.3791,1.3842,1.3836,1.3848,1.3909,1.3958,1.3966,1.397,1.3949,1.3975,1.399,1.3979,1.408,1.4052,1.4064,1.41,1.42,1.4206,1.421,1.424,1.425,1.4258,0,0,0,0,0,0,1.3816,1.3846,1.3839,1.3901,1.3927,1.3955,1.3987,1.398,1.4014,1.401,1.4014,1.4022,1.4081,1.4096,1.4064,1.4167,1.4137,1.4145,1.4155,1.4165,1.4173,1.4168,1.4038,0,0,0,0,0,1.3829,1.3866,1.389,1.3942,1.3956,1.3969,1.3991,1.3992,1.402,1.4031,1.405,1.4078,1.4116,1.4141,1.4178,1.4245,1.4253,1.4276,1.4283,1.429,1.4297,1.4336,1.4347,1.423,1.423,1.423,0,0,1.3855,1.3876,1.3899,1.3948,1.3968,1.4008,1.3979,1.4021,1.4051,1.4037,1.4093,1.4108,1.414,1.4203,1.4232,1.4218,1.4331,1.4296,1.4301,1.4304,1.4342,1.4353,1.4363,1.4233,1.4232,1.4232,0,0,1.3924,1.3943,1.3989,1.4011,1.4042,1.4051,1.4062,1.4092,1.4101,1.4157,1.4148,1.4185,1.425,1.4274,1.4294,1.4374,1.4366,1.4386,1.4426,1.4464,1.4474,1.4482,1.4512,1.4523,1.4393,1.4393,1.4393,0,1.3954,1.4012,1.4014,1.4058,1.4081,1.407,1.4119,1.4139,1.4181,1.4198,1.4181,1.4264,1.4285,1.4354,1.4374,1.4391,1.4405,1.4383,1.4472,1.448,1.4488,1.4517,1.4528,1.4395,1.4395,1.4395,1.4395,0,1.4047,1.4088,1.4122,1.4163,1.4189,1.4235,1.4246,1.4273,1.4272,1.4283,1.4342,1.4366,1.4408,1.4425,1.4424,1.4495,1.4486,1.447,1.444,1.4501,1.4529,1.454,1.4399,1.4398,1.4397,1.4396,0,0,1.4133,1.4176,1.4188,1.4208,1.4242,1.4275,1.4321,1.4362,1.4386,1.4415,1.4456,1.4512,1.4499,1.4522,1.4524,1.4558,1.4622,1.4539,1.454,1.4555,1.4705,1.4717,1.473,1.4617,1.4619,1.4621,1.4703,0,1.4206,1.4287,1.4291,1.4365,1.4404,1.4396,1.4436,1.4463,1.4475,1.4511,1.4525,1.4566,1.4544,1.4559,1.4591,1.4608,1.4653,1.4602,1.4656,1.4658,1.465,1.4744,1.4757,1.4833,1.4713,1.4715,1.4716,0,1.4302,1.4335,1.4413,1.4444,1.446,1.4497,1.4536,1.4569,1.46,1.4607,1.4634,1.4632,1.4682,1.465,1.4719,1.4684,1.4707,1.4719,1.4722,1.4728,1.4692,1.4754,1.4857,1.4869,1.4733,1.4732,1.4731,0,1.4359,1.4423,1.4478,1.4495,1.4532,1.4558,1.4575,1.4604,1.4629,1.4663,1.468,1.472,1.4742,1.4774,1.4784,1.4759,1.4854,1.4821,1.4862,1.4862,1.4883,1.4882,1.4992,1.4896,1.4895,1.4895,1.4895,0,1.4441,1.4489,1.4505,1.4539,1.4593,1.4599,1.4653,1.4669,1.4695,1.4733,1.4728,1.4764,1.4774,1.4813,1.4821,1.4878,1.4888,1.4896,1.4898,1.4897,1.4897,1.4913,1.4909,1.4898,1.4898,1.4897,1.4896,0,1.4514,1.4526,1.4586,1.4617,1.4626,1.4665,1.4692,1.4725,1.4737,1.4786,1.4798,1.4817,1.4863,1.4875,1.493,1.4935,1.5003,1.4999,1.4993,1.4993,1.5034,1.5031,1.516,1.5178,1.5068,1.5069,1.507,0,1.4566,1.4603,1.4638,1.4663,1.4681,1.4721,1.4747,1.4755,1.4782,1.4821,1.4851,1.4895,1.4932,1.5005,1.5025,1.5067,1.5065,1.5108,1.5071,1.507,1.5068,1.5066,1.5071,1.5115,1.5116,1.5117,1.5118,0,1.4658,1.4663,1.4699,1.4739,1.477,1.4801,1.4832,1.4853,1.4865,1.4896,1.4943,1.4971,1.5027,1.5072,1.5115,1.5134,1.5129,1.5129,1.5141,1.5141,1.5137,1.5141,1.5013,1.5126,1.5125,1.5124,1.5124,1.5124,1.4724,1.4757,1.4787,1.4829,1.4853,1.4882,1.4916,1.4932,1.4971,1.5016,1.5019,1.507,1.5102,1.5159,1.518,1.5221,1.5209,1.5226,1.523,1.5235,1.5239,1.5129,1.5229,1.5229,1.5229,1.5228,1.5228,0,1.4817,1.4836,1.4874,1.4917,1.4951,1.4942,1.4976,1.5005,1.505,1.5079,1.5115,1.517,1.5214,1.5238,1.5282,1.5311,1.531,1.5322,1.5321,1.5326,1.5247,1.5233,1.5323,1.5323,1.5323,1.5323,1.5323,1.5323,1.4869,1.4926,1.4934,1.5003,1.5023,1.5072,1.5092,1.512,1.5144,1.5205,1.5241,1.5256,1.5285,1.5331,1.5372,1.5378,1.5396,1.541,1.5415,1.5341,1.5331,1.5322,1.5309,1.5414,1.5414,1.5491,1.5492,1.5493]},{"header":{"parameterUnit":"m.s-1","parameterCategory":1,"la1":30.2991,"la2":30.254,"lo1":-89.0895,"lo2":-89.0444,"dy":0.0017,"dx":0.0017,"nx":28,"ny":28,"refTime":"2024-03-06T03:00:00:Z","depth":0,"parameterNumber":3,"parameterNumberName":"V-component_of_WINDS"},"data":[0,0,0,0,0,0,0,0,0,0,0,0,0,0,0,0,0,0,0,0,0,0,0,0,0,0,0,0,0,0,0,0,0,0,0,0,0,0,0,0,0,0,0,0,0,0,0,0,0,0,0,0,0,0,0,0,0,0,-1.7685,-1.7685,0,-1.77,-1.77,-1.77,-1.7731,-1.7732,-1.7733,-1.7733,-1.7747,-1.7747,-1.7747,0,0,0,0,0,0,0,0,0,0,0,0,0,-1.7684,-1.7684,-1.7685,-1.7685,-1.7686,-1.77,-1.77,-1.77,-1.7731,-1.7732,-1.7733,-1.7734,-1.7747,-1.7747,-1.7747,0,0,0,0,0,0,0,0,0,0,0,0,0,-1.769,-1.7684,-1.7685,-1.7703,-1.7705,-1.77,-1.77,-1.77,-1.7731,-1.7732,-1.7733,-1.7734,-1.7747,-1.7747,-1.7746,-1.7725,0,0,-1.7745,-1.7745,0,0,0,0,0,0,0,0,-1.769,-1.769,-1.77,-1.7702,-1.7704,-1.7715,-1.7705,-1.7708,-1.7731,-1.7721,-1.7733,-1.7734,-1.7735,-1.7736,-1.7737,-1.7726,-1.7726,-1.7745,-1.7745,-1.7745,-1.7745,0,0,0,0,0,0,0,-1.7689,-1.769,-1.7691,-1.77,-1.7702,-1.771,-1.7712,-1.7705,-1.7723,-1.7722,-1.7724,-1.7726,-1.7737,-1.7737,-1.7737,-1.7727,-1.7745,-1.7745,-1.7745,-1.7745,-1.7699,-1.7698,0,0,0,0,0,0,-1.7686,-1.7689,-1.769,-1.7691,-1.7699,-1.7709,-1.7711,-1.771,-1.7723,-1.7726,-1.7725,-1.7727,-1.7737,-1.7738,-1.7738,-1.7713,-1.7745,-1.7745,-1.7745,-1.77,-1.7699,-1.7698,0,0,0,0,0,0,-1.7686,-1.7686,-1.769,-1.7691,-1.7692,-1.7708,-1.7707,-1.771,-1.771,-1.7725,-1.7728,-1.7722,-1.7738,-1.7738,-1.7728,-1.7714,-1.7745,-1.7744,-1.7701,-1.77,-1.7698,-1.7664,0,0,0,0,0,0,-1.7686,-1.7686,-1.7678,-1.769,-1.7692,-1.768,-1.7706,-1.771,-1.771,-1.7713,-1.7723,-1.7726,-1.7739,-1.7728,-1.7728,-1.7714,-1.7744,-1.7702,-1.77,-1.7699,-1.7666,-1.7661,-1.7657,0,0,0,0,0,-1.7686,-1.7668,-1.7677,-1.7677,-1.7682,-1.7679,-1.768,-1.7695,-1.7709,-1.7701,-1.771,-1.7725,-1.7716,-1.7727,-1.7727,-1.7713,-1.7703,-1.7701,-1.7699,-1.7668,-1.7662,-1.7657,0,0,0,0,0,0,-1.7652,-1.767,-1.7681,-1.7666,-1.7671,-1.7684,-1.7675,-1.7688,-1.7689,-1.7692,-1.7711,-1.7713,-1.77,-1.7706,-1.7718,-1.7693,-1.7712,-1.771,-1.7689,-1.7684,-1.7679,-1.7677,-1.7744,0,0,0,0,0,-1.7644,-1.764,-1.7655,-1.764,-1.7642,-1.7658,-1.7657,-1.7669,-1.7675,-1.7677,-1.7685,-1.769,-1.7688,-1.7687,-1.7686,-1.7668,-1.767,-1.7658,-1.7654,-1.765,-1.7647,-1.7637,-1.7632,-1.769,-1.769,-1.769,0,0,-1.7625,-1.7634,-1.763,-1.7634,-1.7639,-1.7634,-1.766,-1.7654,-1.765,-1.7676,-1.7666,-1.7673,-1.768,-1.7665,-1.766,-1.767,-1.7632,-1.7647,-1.7644,-1.7643,-1.7635,-1.7629,-1.7624,-1.7689,-1.7689,-1.7689,0,0,-1.7587,-1.7594,-1.7583,-1.7588,-1.7595,-1.7606,-1.7603,-1.7615,-1.7621,-1.7612,-1.7631,-1.7627,-1.7624,-1.7628,-1.7629,-1.7595,-1.7608,-1.7594,-1.7569,-1.756,-1.7555,-1.7551,-1.7538,-1.7533,-1.7591,-1.7591,-1.7591,0,-1.7563,-1.7557,-1.7575,-1.7568,-1.7569,-1.7593,-1.7581,-1.7585,-1.7592,-1.7592,-1.7603,-1.7599,-1.7606,-1.7592,-1.7584,-1.7585,-1.7582,-1.7592,-1.7555,-1.7551,-1.7547,-1.7535,-1.753,-1.7589,-1.759,-1.759,-1.759,0,-1.7525,-1.7521,-1.7511,-1.7517,-1.7517,-1.7508,-1.7524,-1.7522,-1.7534,-1.7544,-1.7535,-1.7543,-1.7544,-1.7543,-1.7554,-1.7531,-1.7537,-1.7551,-1.7571,-1.7539,-1.7528,-1.7523,-1.7587,-1.7587,-1.7588,-1.7588,0,0,-1.7466,-1.7483,-1.7479,-1.7482,-1.7493,-1.749,-1.7482,-1.7484,-1.7481,-1.7486,-1.7478,-1.7476,-1.7489,-1.7491,-1.7503,-1.7495,-1.7466,-1.7511,-1.7511,-1.7501,-1.744,-1.7428,-1.7422,-1.7476,-1.7476,-1.7475,-1.7439,0,-1.743,-1.7417,-1.7434,-1.7417,-1.7412,-1.7436,-1.7429,-1.7434,-1.7443,-1.7441,-1.7451,-1.7448,-1.7467,-1.7468,-1.7461,-1.7471,-1.7454,-1.7474,-1.7469,-1.7469,-1.7465,-1.7417,-1.7404,-1.737,-1.7435,-1.7435,-1.7434,0,-1.7386,-1.7389,-1.7371,-1.7384,-1.7383,-1.7376,-1.7379,-1.7377,-1.7384,-1.7391,-1.7393,-1.7408,-1.7401,-1.7421,-1.7411,-1.7425,-1.7424,-1.7429,-1.7428,-1.7426,-1.7448,-1.7413,-1.7359,-1.7354,-1.7427,-1.7428,-1.7428,0,-1.7343,-1.7342,-1.7332,-1.7334,-1.7348,-1.7343,-1.7349,-1.7357,-1.7357,-1.736,-1.736,-1.7362,-1.7362,-1.7363,-1.7378,-1.7392,-1.7366,-1.7388,-1.7371,-1.737,-1.7363,-1.7363,-1.7307,-1.7365,-1.7365,-1.7365,-1.7365,0,-1.73,-1.7288,-1.7313,-1.7306,-1.7293,-1.7313,-1.73,-1.7308,-1.7316,-1.7311,-1.7332,-1.7326,-1.7348,-1.7345,-1.7357,-1.7346,-1.7347,-1.7352,-1.7355,-1.7349,-1.7348,-1.7347,-1.735,-1.7364,-1.7364,-1.7364,-1.7365,0,-1.7249,-1.7265,-1.7255,-1.727,-1.7273,-1.7263,-1.7276,-1.727,-1.7281,-1.7275,-1.7274,-1.7291,-1.7289,-1.7305,-1.7306,-1.7314,-1.7297,-1.7305,-1.7294,-1.7296,-1.7278,-1.7279,-1.7218,-1.7211,-1.7275,-1.7274,-1.7274,0,-1.722,-1.7211,-1.7225,-1.7224,-1.7228,-1.7226,-1.7226,-1.7246,-1.7245,-1.7253,-1.7246,-1.7246,-1.7247,-1.7242,-1.7254,-1.7255,-1.7262,-1.7241,-1.7262,-1.7257,-1.726,-1.726,-1.7259,-1.7236,-1.7235,-1.7235,-1.7234,0,-1.7166,-1.7174,-1.7174,-1.7177,-1.7176,-1.7179,-1.7184,-1.7181,-1.7202,-1.7201,-1.7199,-1.7199,-1.7201,-1.72,-1.7203,-1.7209,-1.7225,-1.7228,-1.7224,-1.7217,-1.721,-1.7212,-1.728,-1.7228,-1.7229,-1.7229,-1.723,-1.723,-1.7124,-1.7117,-1.7126,-1.7125,-1.7131,-1.7134,-1.713,-1.7141,-1.714,-1.7142,-1.7154,-1.715,-1.7158,-1.7164,-1.7169,-1.7166,-1.7176,-1.717,-1.7168,-1.7166,-1.7162,-1.7212,-1.7167,-1.7167,-1.7167,-1.7167,-1.7167,0,-1.707,-1.7077,-1.7076,-1.7082,-1.7081,-1.7097,-1.7103,-1.7101,-1.7097,-1.7104,-1.7104,-1.7102,-1.7102,-1.7115,-1.7116,-1.7111,-1.7118,-1.711,-1.711,-1.7111,-1.7154,-1.7157,-1.7105,-1.7105,-1.7105,-1.7105,-1.7105,-1.7105,-1.7042,-1.7031,-1.7041,-1.7033,-1.7041,-1.7037,-1.7039,-1.7042,-1.7048,-1.7045,-1.7045,-1.7053,-1.7062,-1.7064,-1.7065,-1.7068,-1.7067,-1.7057,-1.7063,-1.7102,-1.7108,-1.7114,-1.7116,-1.7057,-1.7057,-1.702,-1.702,-1.7019]}]]